Regional Weather Roundup
Issued by NWS Charleston, WV

Home | Current Version | Previous Version | Graphics & Text | Print | Product List | Glossary On
Versions: 1 2 3 4 5 6 7 8 9 10 11 12 13 14 15 16 17 18 19 20 21 22 23 24 25 26 27 28 29 30 31 32 33 34 35 36 37 38 39 40 41 42 43 44 45 46 47 48 49 50
000
ASUS41 KRLX 271910
RWRRLX
West Virginia Regional Weather Roundup
National Weather Service Charleston WV
300 PM EDT WED MAY 27 2015

Note: "fair" indicates few or no clouds below 12,000 feet with no
significant weather and/or obstructions to visibility.

WVZ003-272000-
Northern Panhandle of West Virginia

CITY           SKY/WX    TMP DP  RH WIND       PRES   REMARKS
WHEELING       PTSUNNY   77  61  57 SW14G22   30.13F
$$

WVZ009-272000-
Northwest West Virginia

CITY           SKY/WX    TMP DP  RH WIND       PRES   REMARKS
PARKERSBURG    MOSUNNY   80  64  58 SW8       30.16F
$$

WVZ006-272000-
Western West Virginia

CITY           SKY/WX    TMP DP  RH WIND       PRES   REMARKS
HUNTINGTON     MOSUNNY   82  63  52 S8        30.15F
$$

WVZ015-272000-
West Central West Virginia

CITY           SKY/WX    TMP DP  RH WIND       PRES   REMARKS
CHARLESTON     MOSUNNY   81  62  52 SW6       30.16F
$$

WVZ022-031-272000-
North Central West Virginia

CITY           SKY/WX    TMP DP  RH WIND       PRES   REMARKS
CLARKSBURG     MOSUNNY   80  64  58 SW15G23   30.15F
MORGANTOWN     MOSUNNY   80  60  50 SW8       30.15F
$$

WVZ025-035-042-045-272000-
Southern West Virginia

CITY           SKY/WX    TMP DP  RH WIND       PRES   REMARKS
BECKLEY          N/A     79  57  46 W13       30.24F
LOGAN            N/A     81  63  54 VRB5      30.17S
BLUEFIELD      PTSUNNY   79  54  41 W8        30.27F
LEWISBURG      PTSUNNY   81  56  42 SW7       30.23F
$$

WVZ047-272000-
Northern Mountains of West Virginia

CITY           SKY/WX    TMP DP  RH WIND       PRES   REMARKS
ELKINS         PTSUNNY   79  61  53 W8        30.20F
$$

WVZ052-272000-
Eastern Panhandle of West Virginia

CITY           SKY/WX    TMP DP  RH WIND       PRES   REMARKS
MARTINSBURG    CLOUDY    75  68  78 S3        30.15F
PETERSBURG     MOSUNNY   82  61  49 CALM      30.14F
$$


USA.gov is the U.S. government's official web portal to all federal, state and local government web resources and services.